Flag for Jordan Weather past 2 weeks in Amman, Jordan

Now
72 °F

Haze.


Feels Like: 77 °F
Forecast: 65 / 84 °F
Wind: 7 mph from Northwest

Location: Amman Airport

Current Time: Jul 25, 2014 at 2:17:58 AM

Latest Report: Jul 25, 2014 at 2:00 AM


Visibility: 3 mi

Pressure: 29.83 "Hg

Humidity: 33%

Dew point: 41 °F

Location of AmmanLocation

Historic Weather in Amman — Graph

°F

Amman temperature yesterday

Maximum temperature yesterday: 88 °F (at 3:00 PM)
Minimum temperature yesterday: 73 °F (at 11:00 PM)
Average temperature yesterday: 80 °F

Past Weeks' High & Low Weather Summary

 TemperatureHumidityPressure
High97 °F (Jul 12, 3:00 PM)88% (Jul 21, 6:00 AM)30.01 "Hg (Jul 21, 6:00 AM)
Low64 °F (Jul 18, 5:00 AM)11% (Jul 10, 9:00 AM)29.83 "Hg (Jul 15, 3:00 PM)
Average77 °F46%29.89 "Hg
* Reported Jul 10 1:00 AM — Jul 25 1:00 AM, Amman, Weather by CustomWeather, © 2014

Note: Actual official high and low records may vary slightly from our data, if they occured in-between our weather recording intervals... More about our weather records

Advertising

Amman weather history for previous 24 hours

 ConditionsComfort  
Time TempWeatherWind HumidityBarometerVisibility
1:00 AM
Jul 25
73 °FHaze.7 mph36%29.83 "Hg3 mi
12:00 AM75 °FHaze.6 mph31%29.86 "Hg3 mi
11:00 PM
Jul 24
73 °FHaze.8 mph38%29.86 "Hg3 mi
10:00 PM75 °FHaze.7 mph39%29.86 "Hg3 mi
9:00 PM75 °FHaze.8 mph50%29.83 "Hg3 mi
8:00 PM77 °FHaze.12 mph44%29.83 "Hg3 mi
7:00 PM81 °FHaze.16 mph39%29.83 "Hg3 mi
6:00 PM84 °FHaze.13 mph31%29.83 "Hg3 mi
5:00 PM88 °FHaze.13 mph25%29.83 "Hg3 mi
4:00 PM86 °FHaze.16 mph33%29.86 "Hg3 mi
3:00 PM88 °FHaze.12 mph29%29.86 "Hg3 mi
2:00 PM86 °FHaze.15 mph25%29.86 "Hg3 mi
1:00 PM86 °FDuststorm.18 mph20%29.86 "Hg3 mi
12:00 PM86 °FClear.13 mph18%29.86 "Hg4 mi
10:00 AM84 °FClear.13 mph19%29.89 "Hg4 mi
9:00 AM81 °FClear.No wind34%29.89 "Hg3 mi
8:00 AM77 °FHaze.No wind34%29.89 "Hg3 mi
7:00 AM75 °FClear.No wind39%29.86 "Hg3 mi
6:00 AM75 °FClear.No wind39%29.86 "Hg3 mi
5:00 AM75 °FClear.5 mph31%29.89 "Hg4 mi
4:00 AM75 °FClear.5 mph31%29.89 "Hg4 mi
3:00 AM77 °FClear.5 mph28%29.89 "Hg4 mi
2:00 AM77 °FClear.5 mph26%29.92 "Hg4 mi
Weather by CustomWeather, © 2014

See weather overviewHow to use our weather pages